Погода в Зугдиди

Погода в Зугдиди : погода сейчас, прогноз погоды и архив. Всё, что Вы хотите узнать о погоде в Зугдиди!

Поиск расширенной информации на нашем сайте:

Другие новости

Новости СМИ2

Главная страница сайта

Новости сайта

02.10.2013

Напоминаем, что на нашем новом сайте вы можете получить высокодетализированные прогнозы погоды по пунктам России, СНГ и мира (включающие важные для авиации метеовеличины, такие как направление и скорость ветра, видимость, явления погоды, количество и форма облачности, нижняя и верхняя граница облачности), а также ознакомиться с разнообразными материалами по авиационной метеорологии и подборкой полезных ссылок на эту тему.

Сайт Метеоцентр.Азия посвящён разработке технологий оптимизации авиаметеорологического обслуживания, включая проектирование и перспективное создание нескольких автоматизированных авиаметеорологических систем:
- система выпуска высокодетальных прогностических карт явлений погоды для нижнего воздушного пространства по России и ближнему зарубежью;
- система верификации прогнозов TAF (выпускаемых синоптиками официальных АМСГ РФ и ближнего зарубежья) и AUTOTAF (выпускаемых сайтом Метеоцентр.Азия) - выявление ошибок, онлайн-сопоставление с фактической погодой METAR, автоматическое внесение коррективов в прогнозы при резком отклонении фактической погоды от прогноза, подсчёт оправдываемости прогнозов по элементам и в целом;
- система обработки, анализа и отображения авиаметеорологической информации для применения провайдерами метеорологической информации.


Погода в Зугдиди - сегодня

Время (UTC), дата Ветер
(°,м/с) 
Видим.   Явления Облачность Т
(°С)
Тd
(°С)
f(%) Тe
(°С)
Pmin
(гПа)
dP
(гПа)
Po
(мм)
O2
(г/м3)
Тmin Tmax R s Состояние
почвы
00 23.05.17 030 (СВ) н/о    н/о 
+12.1 +11.7 97 +16  1017.4  -0.9  748  286         
06 23.05.17 100 (В) н/о    н/о 
+16 +12.4 79 +22  1017.1  0.2  748  282  +11.8       
09 23.05.17 300 (СЗ) н/о    н/о 
+15.6 +13.1 85 +21  1017.9  0.7  749  283           
12 23.05.17 280 (З) н/о    н/о 
+13.4 +12.2 92 +17  1020.6  2.5  751  286           
18 23.05.17 тихо ()   н/о    н/о 
+12.6 +11.8 95 +16  1023.6  1.2  753  288    +17.9     
21 23.05.17 040 (СВ) н/о    н/о 
+12.4 +11.8 96 +17  1023.4  -0.2  753  288           
00 24.05.17 тихо ()   н/о    н/о 
+12.2 +11.7 97 +16  1022.5  -0.9  752  288         
06 24.05.17 280 (З) н/о    н/о 
+13 +12.1 94 +17  1023.7  1.1  753  287  +12       
09 24.05.17 290 (З) н/о    н/о 
+13.1 +11.6 91 +16  1024.7  0.9  754  288         
12 24.05.17 240 (ЮЗ) н/о    н/о 
+15.8 +11.9 78 +21  1024.8  0.3  754  285         
15 24.05.17 270 (З) н/о    н/о 
+15.7 +10.4 71 +17  1025  0.2  754  285    +16.8     
18 24.05.17 050 (СВ) н/о    н/о 
+11.7 +11 95 +14  1025.9  0.6  755  289    +16.8     
21 24.05.17 020 (С) н/о    н/о 
+8.8 +8.5 98 +10  1025.6  -0.5  754  293           
00 25.05.17 030 (СВ) н/о    н/о 
+7.7 +7.5 99 +9  1024.8  -0.8  754  294           
03 25.05.17 020 (С) н/о    н/о 
+9.1 +8.9 99 +10  1024  -0.6  753  292           
06 25.05.17 110 (В) н/о    н/о 
+18.3 +9.6 57 +20  1023.2  -0.2  753  283  +7.4         
09 25.05.17 150 (ЮВ) н/о    н/о 
+21.5 +7.2 40 +22  1022.4  -0.6  753  280           
12 25.05.17 130 (ЮВ) н/о    н/о 
+23 +5.5 32 +23  1021.7  -0.7  752  279           
15 25.05.17 320 (СЗ) н/о    н/о 
+22.2 +11.4 50 +25  1021.1  -0.6  752  278    +24.1       
18 25.05.17 050 (СВ) н/о    н/о 
+14.8 +12.5 86 +20  1022  0.4  752  285    +24.1       
21 25.05.17 030 (СВ) н/о    н/о 
+15.7 +7.3 57 +16  1021.1  -0.8  751  285           
00 26.05.17 040 (СВ) н/о    н/о 
+14 +6 58 +14  1020.8  -0.4  751  287           
03 26.05.17 030 (СВ) н/о    н/о 
+15.7 +5.1 49 +16  1020.1  -0.6  751  285           
06 26.05.17 030 (СВ) н/о    н/о 
+21.8 +6.1 36 +22  1018.9  -0.7  750  279  +12.1         
12 27.05.17 300 (СЗ) н/о    н/о 
+25.3 +14.5 51 +33  1015  -1.7  747  273      0.3     
Время (UTC), дата Ветер
(°,м/с) 
Видим.   Явления Облачность Т
(°С)
Тd
(°С)
f(%) Тe
(°С)
Pmin
(гПа)
dP
(гПа)
Po
(мм)
O2
(г/м3)
Тmin Tmax R s Состояние
почвы

Для получения пояснительной информации подведите курсор к названию столбца.

ПОГОДА в Зугдиди - архив

Всё, что Вы хотите узнать о погоде в Зугдиди - удобно и подробно!

Выберите нужную дату (начиная с 1 января 2015* года) и нажмите кнопку "Найти".
Будут отображены архивные сводки погоды по пункту Зугдиди, начиная с указанной даты.


Отображать данные в формате CSV (для использования в таблицах Excel)


Внимание! Наш архив погоды предназначен исключительно для личного некоммерческого использования в познавательных целях. Если Вам необходимы официальные справки о состоянии погоды (для производственных, юридических, коммерческих и т.п. целей), обращайтесь в органы Росгидромета.

*Примечание: данная дата относится к архиву по метеостанциям СССР (Россия, СНГ, Балтия).
Архив по метеостанциям Зарубежной Европы и Азии (кроме Китая) хранится 10 дней, по другим регионам земного шара (Китай, Африка, Америка, Австралия, Океания) - 1 день.

Зугдиди - район местоположения метеостанции


Название, широта, долгота, высота метеостанции:
Зугдиди 42.5°ш. 41.9°д. 117 м над ур. моря [Грузия]

Дополнительная информация

В oтличие oт бoльшинства пoгoдных сайтoв мы публикуем пoдрoбную метеoинфoрмацию в детальнoм прoфессиoнальнoм фoрмате.

Характеристики температуры и влажнoсти вoздуха измеряются на высoте 2 м в тени вдали oт зданий и деревьев.
Скoрoсть ветра измеряется на высoте 10 м (на урoвне рoста челoвека скoрoсть ветра ниже в 1.5-2 раза). Если метеoстанция нахoдится в гoрoде или в лесу, тo скoрoсть ветра занижена на 2-4 м/с пo сравнению с oткрытым местoм. Скoрoсть ветра над акватoриями крупных рек и oзёр, а также на вершинах хoлмoв на 2-5 м/с выше, чем в oбычных услoвиях.
Атмoсфернoе давление в разных тoчках местнoсти мoжет значительнo oтличаться oт давления на метеoстанции, в зависимoсти oт услoвий рельефа (при пoдъёме на 10 м давление пoнижается примернo на 1 мм рт.ст.).